FW9216 Weather Reports


time (UTC)temp
F
wind
direction
speed
knots
gust
knots
rain 1hr
in
rain 24hr
in
rain mn
in
humidity
%
barometer
mb
20260505022604 70 134 0.0 0.9 0.00 0.00 0.00 42 1005.8
20260505022105 71 112 0.0 1.7 0.00 0.00 0.00 41 1005.7
20260505020104 73 84 0.9 2.6 0.00 0.00 0.00 36 1005.7
20260505015105 74 61 0.9 2.6 0.00 0.00 0.00 35 1005.6
20260505014604 75 102 0.9 2.6 0.00 0.00 0.00 35 1005.6
20260505013604 76 195 0.9 2.6 0.00 0.00 0.00 34 1005.6
20260505013105 76 107 0.9 2.6 0.00 0.00 0.00 33 1005.7
20260505012105 76 269 0.0 2.6 0.00 0.00 0.00 36 1005.7
20260505011605 76 307 0.9 4.3 0.00 0.00 0.00 32 1005.7
20260505005104 77 147 0.9 7.8 0.00 0.00 0.00 33 1005.8
20260505003604 78 259 0.9 5.2 0.00 0.00 0.00 32 1005.9
20260505002605 78 195 0.9 2.6 0.00 0.00 0.00 32 1005.9
20260505002104 78 293 1.7 4.3 0.00 0.00 0.00 32 1006.0
20260505000104 78 318 1.7 8.7 0.00 0.00 0.00 34 1005.9
20260504235604 78 315 1.7 7.0 0.00 0.00 0.00 32 1005.9
20260504235104 78 287 2.6 7.0 0.00 0.00 0.00 33 1005.9
20260504233104 78 300 1.7 6.1 0.00 0.00 0.00 33 1005.8
20260504232104 77 291 1.7 6.1 0.00 0.00 0.00 35 1005.8
20260504231105 76 267 1.7 7.0 0.00 0.00 0.00 39 1005.9
20260504230605 76 287 2.6 7.0 0.00 0.00 0.00 39 1005.8
20260504230104 77 245 1.7 5.2 0.00 0.00 0.00 39 1005.8
20260504224104 77 294 2.6 5.2 0.00 0.00 0.00 35 1005.8
20260504223604 77 301 0.9 5.2 0.00 0.00 0.00 36 1005.8
20260504222104 77 9 1.7 7.0 0.00 0.00 0.00 38 1006.0
20260504221104 76 281 2.6 10.4 0.00 0.00 0.00 35 1006.1
20260504215104 76 282 2.6 7.0 0.00 0.00 0.00 36 1006.1
20260504214104 76 299 1.7 6.1 0.00 0.00 0.00 38 1006.1
20260504211604 75 301 1.7 2.6 0.00 0.00 0.00 40 1006.3
20260504210104 75 265 1.7 4.3 0.00 0.00 0.00 37 1006.3
20260504205104 75 284 2.6 7.0 0.00 0.00 0.00 38 1006.4
20260504204604 75 257 1.7 7.8 0.00 0.00 0.00 38 1006.5
20260504204104 74 241 3.5 7.8 0.00 0.00 0.00 39 1006.5
20260504203104 75 352 1.7 6.1 0.00 0.00 0.00 35 1006.6
20260504202604 74 267 1.7 6.1 0.00 0.00 0.00 36 1006.6
20260504201604 74 315 4.3 8.7 0.00 0.00 0.00 37 1006.7
20260504201104 74 251 0.9 7.0 0.00 0.00 0.00 36 1006.7
20260504200604 74 283 1.7 7.0 0.00 0.00 0.00 37 1006.7
20260504200104 74 309 1.7 4.3 0.00 0.00 0.00 38 1006.7
20260504195605 74 287 1.7 4.3 0.00 0.00 0.00 39 1006.6
20260504195105 74 288 0.9 5.2 0.00 0.00 0.00 40 1006.7
20260504194604 74 289 1.7 5.2 0.00 0.00 0.00 40 1006.8
20260504194104 74 279 0.9 4.3 0.00 0.00 0.00 37 1006.9
20260504193605 74 268 1.7 6.1 0.00 0.00 0.00 39 1006.8
20260504191604 72 223 2.6 6.1 0.00 0.00 0.00 42 1007.1
20260504185604 72 310 1.7 2.6 0.00 0.00 0.00 44 1007.1
20260504185104 72 268 1.7 2.6 0.00 0.00 0.00 43 1007.1
20260504184605 72 237 0.9 2.6 0.00 0.00 0.00 46 1007.2
20260504184104 72 257 0.0 2.6 0.00 0.00 0.00 45 1007.2
20260504181604 71 175 1.7 4.3 0.00 0.00 0.00 45 1007.2
20260504180104 69 107 1.7 5.2 0.00 0.00 0.00 45 1007.3
20260504174104 69 76 0.0 2.6 0.00 0.00 0.00 46 1007.4
20260504173604 69 58 1.7 2.6 0.00 0.00 0.00 45 1007.4
20260504173104 69 221 0.0 6.1 0.00 0.00 0.00 46 1007.4
20260504172604 68 196 0.9 6.1 0.00 0.00 0.00 46 1007.5
20260504172104 68 127 0.9 2.6 0.00 0.00 0.00 45 1007.4
20260504171604 68 195 0.0 2.6 0.00 0.00 0.00 46 1007.5
20260504150603 59 159 0.0 1.7 0.00 0.00 0.00 62 1007.5
20260504141104 54 144 0.0 0.9 0.00 0.00 0.00 68 1007.7
20260504130604 43 144 0.0 0.0 0.00 0.00 0.00 83 1007.4
20260504110606 43 139 0.0 0.0 0.00 0.00 0.00 83 1007.4
20260504110106 43 139 0.0 0.0 0.00 0.00 0.00 83 1007.5
20260504100606 43 172 0.0 0.0 0.00 0.00 0.00 85 1007.6
20260504100105 42 172 0.0 0.0 0.00 0.00 0.00 85 1007.6
20260504090105 44 172 0.0 0.0 0.00 0.00 0.00 83 1007.5
20260504081605 45 266 0.0 0.9 0.00 0.00 0.00 81 1007.9
20260504080605 45 266 0.0 0.0 0.00 0.00 0.00 82 1008.0
20260504080105 45 266 0.0 0.0 0.00 0.00 0.00 83 1007.9
20260504070106 44 266 0.0 0.0 0.00 0.00 0.00 86 1008.0
20260504050606 49 266 0.0 0.0 0.00 0.00 0.00 78 1008.5
20260504050106 50 266 0.0 0.0 0.00 0.00 0.00 77 1008.5
20260504044105 51 266 0.0 0.0 0.00 0.00 0.00 76 1008.5
20260504043105 52 266 0.0 0.0 0.00 0.00 0.00 73 1008.4
20260504042106 53 266 0.0 0.0 0.00 0.00 0.00 70 1008.4
20260504041105 54 266 0.0 0.0 0.00 0.00 0.00 70 1008.4
20260504035606 55 266 0.0 0.0 0.00 0.00 0.00 63 1008.3
20260504034605 57 266 0.0 0.0 0.00 0.00 0.00 60 1008.2
20260504034106 58 266 0.0 0.0 0.00 0.00 0.00 59 1008.2
20260504033605 58 266 0.0 0.0 0.00 0.00 0.00 59 1008.1
20260504033105 59 266 0.0 0.0 0.00 0.00 0.00 58 1008.1
20260504032105 60 266 0.0 0.0 0.00 0.00 0.00 56 1008.0
20260504031605 61 266 0.0 0.0 0.00 0.00 0.00 55 1008.0
20260504024106 67 266 0.0 0.0 0.00 0.00 0.00 40 1007.9
20260504023105 69 266 0.0 0.9 0.00 0.00 0.00 40 1008.0